Location: Liège
(50.6326°N, 5.5797°E)
Time: 22:25:28
(UTC+01:00)

ISS - Visible Passes

Search period start: 21 February 2018 00:00
Search period end: 03 March 2018 00:00
Orbit: 403 x 407 km, 51.6° (Epoch: 22 February)

Date Brightness Start Highest point End Pass type
(mag) Time Alt. Az. Time Alt. Az. Time Alt. Az.
28 Feb -1.2 06:15:58 10° S 06:18:17 18° SE 06:20:37 10° E visible
01 Mar -0.9 05:25:09 10° SSE 05:26:15 11° SE 05:27:22 10° ESE visible
02 Mar -2.3 06:06:58 10° SW 06:09:56 32° SSE 06:12:54 10° E visible
